Terug naar catalogus

FENGYUN 1C DEB

ActiefSSO
NORAD 30205·DEBRIS·🇨🇳 China

Gelanceerd May 10, 1999 vanaf Taiyuan Satellite Launch Center

Loading…

Volgende Passages (komende 24 uur)

TLE

VersSource: Space-Track

Epoch: Sep 13, 2026, 20:59 UTC

1 30205U 99025VN  26256.87454586  .00000197  00000-0  18838-3 0  9991
2 30205  99.0132   3.5996 0121453 154.6060 331.0162 13.88219067994559

Volg FENGYUN 1C DEB in realtime met AllMySat

Download on the App Store